Year,Month,Day,Hour,Minute,Value (Times are PST for temperature in C)
2015,11,12,00,00,6.70
2015,11,12,00,01,6.70
2015,11,12,00,02,6.70
2015,11,12,00,03,6.80
2015,11,12,00,04,6.80
2015,11,12,00,05,6.80
2015,11,12,00,06,6.80
2015,11,12,00,07,6.80
2015,11,12,00,08,6.80
2015,11,12,00,09,6.80
2015,11,12,00,10,6.90
2015,11,12,00,11,6.90
2015,11,12,00,12,6.90
2015,11,12,00,13,6.90
2015,11,12,00,14,6.90
2015,11,12,00,15,6.90
2015,11,12,00,16,6.90
2015,11,12,00,17,6.90
2015,11,12,00,18,6.90
2015,11,12,00,19,6.90
2015,11,12,00,20,6.90
2015,11,12,00,21,6.90
2015,11,12,00,22,6.90
2015,11,12,00,23,6.90
2015,11,12,00,24,6.90
2015,11,12,00,25,6.90
2015,11,12,00,26,6.90
2015,11,12,00,27,6.90
2015,11,12,00,28,6.90
2015,11,12,00,29,6.80
2015,11,12,00,30,6.80
2015,11,12,00,31,6.80
2015,11,12,00,32,6.80
2015,11,12,00,33,6.80
2015,11,12,00,34,6.80
2015,11,12,00,35,6.80
2015,11,12,00,36,6.80
2015,11,12,00,37,6.80
2015,11,12,00,38,6.80
2015,11,12,00,39,6.80
2015,11,12,00,40,6.80
2015,11,12,00,41,6.80
2015,11,12,00,42,6.80
2015,11,12,00,43,6.80
2015,11,12,00,44,6.80
2015,11,12,00,45,6.80
2015,11,12,00,46,6.80
2015,11,12,00,47,6.80
2015,11,12,00,48,6.80
2015,11,12,00,49,6.80
2015,11,12,00,50,6.80
2015,11,12,00,51,6.80
2015,11,12,00,52,6.80
2015,11,12,00,53,6.90
2015,11,12,00,54,6.90
2015,11,12,00,55,6.90
2015,11,12,00,56,6.90
2015,11,12,00,57,6.90
2015,11,12,00,58,6.90
2015,11,12,00,59,6.90
2015,11,12,01,00,6.90
2015,11,12,01,01,7.00
2015,11,12,01,02,7.00
2015,11,12,01,03,7.00
2015,11,12,01,04,7.00
2015,11,12,01,05,7.00
2015,11,12,01,06,7.00
2015,11,12,01,07,7.00
2015,11,12,01,08,7.10
2015,11,12,01,09,7.10
2015,11,12,01,10,7.10
2015,11,12,01,11,7.10
2015,11,12,01,12,7.10
2015,11,12,01,13,7.10
2015,11,12,01,14,7.00
2015,11,12,01,15,7.00
2015,11,12,01,16,7.00
2015,11,12,01,17,7.00
2015,11,12,01,18,7.00
2015,11,12,01,19,7.00
2015,11,12,01,20,7.00
2015,11,12,01,21,7.00
2015,11,12,01,22,7.00
2015,11,12,01,23,7.00
2015,11,12,01,24,6.90
2015,11,12,01,25,6.90
2015,11,12,01,26,6.90
2015,11,12,01,27,6.90
2015,11,12,01,28,6.90
2015,11,12,01,29,6.90
2015,11,12,01,30,6.90
2015,11,12,01,31,6.90
2015,11,12,01,32,6.90
2015,11,12,01,33,6.80
2015,11,12,01,34,6.80
2015,11,12,01,35,6.80
2015,11,12,01,36,6.80
2015,11,12,01,37,6.80
2015,11,12,01,38,6.80
2015,11,12,01,39,6.80
2015,11,12,01,40,6.80
2015,11,12,01,41,6.80
2015,11,12,01,42,6.80
2015,11,12,01,43,6.80
2015,11,12,01,44,6.70
2015,11,12,01,45,6.70
2015,11,12,01,46,6.70
2015,11,12,01,47,6.70
2015,11,12,01,48,6.70
2015,11,12,01,49,6.70
2015,11,12,01,50,6.70
2015,11,12,01,51,6.70
2015,11,12,01,52,6.70
2015,11,12,01,53,6.70
2015,11,12,01,54,6.70
2015,11,12,01,55,6.70
2015,11,12,01,56,6.70
2015,11,12,01,57,6.70
2015,11,12,01,58,6.70
2015,11,12,01,59,6.70
2015,11,12,02,00,6.70
2015,11,12,02,01,6.70
2015,11,12,02,02,6.70
2015,11,12,02,03,6.80
2015,11,12,02,04,6.80
2015,11,12,02,05,6.80
2015,11,12,02,06,6.80
2015,11,12,02,07,6.90
2015,11,12,02,08,6.90
2015,11,12,02,09,6.90
2015,11,12,02,10,7.00
2015,11,12,02,11,7.00
2015,11,12,02,12,7.00
2015,11,12,02,13,7.00
2015,11,12,02,14,7.00
2015,11,12,02,15,7.00
2015,11,12,02,16,7.00
2015,11,12,02,17,7.00
2015,11,12,02,18,7.00
2015,11,12,02,19,7.00
2015,11,12,02,20,7.00
2015,11,12,02,21,7.00
2015,11,12,02,22,7.00
2015,11,12,02,23,7.00
2015,11,12,02,24,7.00
2015,11,12,02,25,7.00
2015,11,12,02,26,7.00
2015,11,12,02,27,7.00
2015,11,12,02,28,7.00
2015,11,12,02,29,7.00
2015,11,12,02,30,6.90
2015,11,12,02,31,6.90
2015,11,12,02,32,6.90
2015,11,12,02,33,6.90
2015,11,12,02,34,6.90
2015,11,12,02,35,6.90
2015,11,12,02,36,6.90
2015,11,12,02,37,6.90
2015,11,12,02,38,6.90
2015,11,12,02,39,7.00
2015,11,12,02,40,7.00
2015,11,12,02,41,7.00
2015,11,12,02,42,7.00
2015,11,12,02,43,7.00
2015,11,12,02,44,7.00
2015,11,12,02,45,7.10
2015,11,12,02,46,7.10
2015,11,12,02,47,7.10
2015,11,12,02,48,7.10
2015,11,12,02,49,7.10
2015,11,12,02,50,7.10
2015,11,12,02,51,7.10
2015,11,12,02,52,7.20
2015,11,12,02,53,7.20
2015,11,12,02,54,7.20
2015,11,12,02,55,7.20
2015,11,12,02,56,7.20
2015,11,12,02,57,7.20
2015,11,12,02,58,7.20
2015,11,12,02,59,7.30
2015,11,12,03,00,7.30
2015,11,12,03,01,7.30
2015,11,12,03,02,7.30
2015,11,12,03,03,7.30
2015,11,12,03,04,7.30
2015,11,12,03,05,7.30
2015,11,12,03,06,7.30
2015,11,12,03,07,7.30
2015,11,12,03,08,7.30
2015,11,12,03,09,7.30
2015,11,12,03,10,7.30
2015,11,12,03,11,7.30
2015,11,12,03,12,7.30
2015,11,12,03,13,7.30
2015,11,12,03,14,7.30
2015,11,12,03,15,7.30
2015,11,12,03,16,7.30
2015,11,12,03,17,7.40
2015,11,12,03,18,7.40
2015,11,12,03,19,7.40
2015,11,12,03,20,7.40
2015,11,12,03,21,7.40
2015,11,12,03,22,7.40
2015,11,12,03,23,7.40
2015,11,12,03,24,7.40
2015,11,12,03,25,7.40
2015,11,12,03,26,7.40
2015,11,12,03,27,7.40
2015,11,12,03,28,7.40
2015,11,12,03,29,7.40
2015,11,12,03,30,7.40
2015,11,12,03,31,7.40
2015,11,12,03,32,7.40
2015,11,12,03,33,7.40
2015,11,12,03,34,7.40
2015,11,12,03,35,7.40
2015,11,12,03,36,7.40
2015,11,12,03,37,7.40
2015,11,12,03,38,7.50
2015,11,12,03,39,7.50
2015,11,12,03,40,7.50
2015,11,12,03,41,7.50
2015,11,12,03,42,7.50
2015,11,12,03,43,7.50
2015,11,12,03,44,7.50
2015,11,12,03,45,7.50
2015,11,12,03,46,7.50
2015,11,12,03,47,7.50
2015,11,12,03,48,7.50
2015,11,12,03,49,7.50
2015,11,12,03,50,7.60
2015,11,12,03,51,7.60
2015,11,12,03,52,7.60
2015,11,12,03,53,7.60
2015,11,12,03,54,7.60
2015,11,12,03,55,7.60
2015,11,12,03,56,7.60
2015,11,12,03,57,7.60
2015,11,12,03,58,7.60
2015,11,12,03,59,7.60
2015,11,12,04,00,7.60
2015,11,12,04,01,7.60
2015,11,12,04,02,7.60
2015,11,12,04,03,7.60
2015,11,12,04,04,7.60
2015,11,12,04,05,7.60
2015,11,12,04,06,7.60
2015,11,12,04,07,7.60
2015,11,12,04,08,7.60
2015,11,12,04,09,7.60
2015,11,12,04,10,7.60
2015,11,12,04,11,7.60
2015,11,12,04,12,7.60
2015,11,12,04,13,7.60
2015,11,12,04,14,7.60
2015,11,12,04,15,7.60
2015,11,12,04,16,7.60
2015,11,12,04,17,7.60
2015,11,12,04,18,7.60
2015,11,12,04,19,7.60
2015,11,12,04,20,7.60
2015,11,12,04,21,7.60
2015,11,12,04,22,7.60
2015,11,12,04,23,7.60
2015,11,12,04,24,7.70
2015,11,12,04,25,7.70
2015,11,12,04,26,7.70
2015,11,12,04,27,7.70
2015,11,12,04,28,7.70
2015,11,12,04,29,7.70
2015,11,12,04,30,7.70
2015,11,12,04,31,7.70
2015,11,12,04,32,7.70
2015,11,12,04,33,7.70
2015,11,12,04,34,7.70
2015,11,12,04,35,7.70
2015,11,12,04,36,7.70
2015,11,12,04,37,7.70
2015,11,12,04,38,7.70
2015,11,12,04,39,7.70
2015,11,12,04,40,7.70
2015,11,12,04,41,7.70
2015,11,12,04,42,7.70
2015,11,12,04,43,7.70
2015,11,12,04,44,7.70
2015,11,12,04,45,7.70
2015,11,12,04,46,7.70
2015,11,12,04,47,7.70
2015,11,12,04,48,7.80
2015,11,12,04,49,7.80
2015,11,12,04,50,7.80
2015,11,12,04,51,7.80
2015,11,12,04,52,7.80
2015,11,12,04,53,7.80
2015,11,12,04,54,7.80
2015,11,12,04,55,7.80
2015,11,12,04,56,7.80
2015,11,12,04,57,7.80
2015,11,12,04,58,7.90
2015,11,12,04,59,7.90
2015,11,12,05,00,7.90
2015,11,12,05,01,7.90
2015,11,12,05,02,7.90
2015,11,12,05,03,7.90
2015,11,12,05,04,7.90
2015,11,12,05,05,7.90
2015,11,12,05,06,7.90
2015,11,12,05,07,7.90
2015,11,12,05,08,8.00
2015,11,12,05,09,8.00
2015,11,12,05,10,8.00
2015,11,12,05,11,8.00
2015,11,12,05,12,8.00
2015,11,12,05,13,8.00
2015,11,12,05,14,8.00
2015,11,12,05,15,8.00
2015,11,12,05,16,8.10
2015,11,12,05,17,8.10
2015,11,12,05,18,8.10
2015,11,12,05,19,8.10
2015,11,12,05,20,8.10
2015,11,12,05,21,8.10
2015,11,12,05,22,8.10
2015,11,12,05,23,8.10
2015,11,12,05,24,8.10
2015,11,12,05,25,8.10
2015,11,12,05,26,8.10
2015,11,12,05,27,8.10
2015,11,12,05,28,8.10
2015,11,12,05,29,8.10
2015,11,12,05,30,8.10
2015,11,12,05,31,8.10
2015,11,12,05,32,8.10
2015,11,12,05,33,8.10
2015,11,12,05,34,8.10
2015,11,12,05,35,8.10
2015,11,12,05,36,8.10
2015,11,12,05,37,8.10
2015,11,12,05,38,8.10
2015,11,12,05,39,8.10
2015,11,12,05,40,8.20
2015,11,12,05,41,8.20
2015,11,12,05,42,8.20
2015,11,12,05,43,8.20
2015,11,12,05,44,8.20
2015,11,12,05,45,8.20
2015,11,12,05,46,8.20
2015,11,12,05,47,8.20
2015,11,12,05,48,8.20
2015,11,12,05,49,8.20
2015,11,12,05,50,8.20
2015,11,12,05,51,8.20
2015,11,12,05,52,8.20
2015,11,12,05,53,8.20
2015,11,12,05,54,8.20
2015,11,12,05,55,8.20
2015,11,12,05,56,8.20
2015,11,12,05,57,8.30
2015,11,12,05,58,8.30
2015,11,12,05,59,8.30
2015,11,12,06,00,8.30
2015,11,12,06,01,8.30
2015,11,12,06,02,8.30
2015,11,12,06,03,8.30
2015,11,12,06,04,8.30
2015,11,12,06,05,8.30
2015,11,12,06,06,8.30
2015,11,12,06,07,8.30
2015,11,12,06,08,8.30
2015,11,12,06,09,8.30
2015,11,12,06,10,8.30
2015,11,12,06,11,8.30
2015,11,12,06,12,8.40
2015,11,12,06,13,8.40
2015,11,12,06,14,8.40
2015,11,12,06,15,8.40
2015,11,12,06,16,8.40
2015,11,12,06,17,8.40
2015,11,12,06,18,8.40
2015,11,12,06,19,8.50
2015,11,12,06,20,8.50
2015,11,12,06,21,8.50
2015,11,12,06,22,8.50
2015,11,12,06,23,8.50
2015,11,12,06,24,8.50
2015,11,12,06,25,8.50
2015,11,12,06,26,8.50
2015,11,12,06,27,8.50
2015,11,12,06,28,8.50
2015,11,12,06,29,8.60
2015,11,12,06,30,8.60
2015,11,12,06,31,8.60
2015,11,12,06,32,8.60
2015,11,12,06,33,8.60
2015,11,12,06,34,8.60
2015,11,12,06,35,8.60
2015,11,12,06,36,8.60
2015,11,12,06,37,8.70
2015,11,12,06,38,8.70
2015,11,12,06,39,8.70
2015,11,12,06,40,8.70
2015,11,12,06,41,8.70
2015,11,12,06,42,8.70
2015,11,12,06,43,8.70
2015,11,12,06,44,8.70
2015,11,12,06,45,8.70
2015,11,12,06,46,8.80
2015,11,12,06,47,8.80
2015,11,12,06,48,8.80
2015,11,12,06,49,8.70
2015,11,12,06,50,8.70
2015,11,12,06,51,8.70
2015,11,12,06,52,8.70
2015,11,12,06,53,8.70
2015,11,12,06,54,8.70
2015,11,12,06,55,8.70
2015,11,12,06,56,8.70
2015,11,12,06,57,8.70
2015,11,12,06,58,8.70
2015,11,12,06,59,8.60
2015,11,12,07,00,8.60
2015,11,12,07,01,8.60
2015,11,12,07,02,8.60
2015,11,12,07,03,8.60
2015,11,12,07,04,8.60
2015,11,12,07,05,8.60
2015,11,12,07,06,8.60
2015,11,12,07,07,8.60
2015,11,12,07,08,8.60
2015,11,12,07,09,8.60
2015,11,12,07,10,8.60
2015,11,12,07,11,8.60
2015,11,12,07,12,8.60
2015,11,12,07,13,8.70
2015,11,12,07,14,8.70
2015,11,12,07,15,8.70
2015,11,12,07,16,8.70
2015,11,12,07,17,8.70
2015,11,12,07,18,8.70
2015,11,12,07,19,8.70
2015,11,12,07,20,8.70
2015,11,12,07,21,8.70
2015,11,12,07,22,8.70
2015,11,12,07,23,8.70
2015,11,12,07,24,8.70
2015,11,12,07,25,8.70
2015,11,12,07,26,8.70
2015,11,12,07,27,8.70
2015,11,12,07,28,8.70
2015,11,12,07,29,8.70
2015,11,12,07,30,8.70
2015,11,12,07,31,8.80
2015,11,12,07,32,8.80
2015,11,12,07,33,8.80
2015,11,12,07,34,8.80
2015,11,12,07,35,8.80
2015,11,12,07,36,8.80
2015,11,12,07,37,8.80
2015,11,12,07,38,8.80
2015,11,12,07,39,8.80
2015,11,12,07,40,8.80
2015,11,12,07,41,8.80
2015,11,12,07,42,8.80
2015,11,12,07,43,8.80
2015,11,12,07,44,8.80
2015,11,12,07,45,8.80
2015,11,12,07,46,8.80
2015,11,12,07,47,8.80
2015,11,12,07,48,8.80
2015,11,12,07,49,8.80
2015,11,12,07,50,8.80
2015,11,12,07,51,8.90
2015,11,12,07,52,8.90
2015,11,12,07,53,8.90
2015,11,12,07,54,8.90
2015,11,12,07,55,8.90
2015,11,12,07,56,9.00
2015,11,12,07,57,9.00
2015,11,12,07,58,9.00
2015,11,12,07,59,9.10
2015,11,12,08,00,9.10
2015,11,12,08,01,9.10
2015,11,12,08,02,9.10
2015,11,12,08,03,9.10
2015,11,12,08,04,9.10
2015,11,12,08,05,9.10
2015,11,12,08,06,9.10
2015,11,12,08,07,9.20
2015,11,12,08,08,9.20
2015,11,12,08,09,9.20
2015,11,12,08,10,9.20
2015,11,12,08,11,9.20
2015,11,12,08,12,9.10
2015,11,12,08,13,9.10
2015,11,12,08,14,9.10
2015,11,12,08,15,9.10
2015,11,12,08,16,9.10
2015,11,12,08,17,9.10
2015,11,12,08,18,9.10
2015,11,12,08,19,9.10
2015,11,12,08,20,9.10
2015,11,12,08,21,9.10
2015,11,12,08,22,9.10
2015,11,12,08,23,9.20
2015,11,12,08,24,9.20
2015,11,12,08,25,9.20
2015,11,12,08,26,9.20
2015,11,12,08,27,9.20
2015,11,12,08,28,9.30
2015,11,12,08,29,9.30
2015,11,12,08,30,9.30
2015,11,12,08,31,9.30
2015,11,12,08,32,9.30
2015,11,12,08,33,9.30
2015,11,12,08,34,9.30
2015,11,12,08,35,9.30
2015,11,12,08,36,9.40
2015,11,12,08,37,9.40
2015,11,12,08,38,9.40
2015,11,12,08,39,9.40
2015,11,12,08,40,9.40
2015,11,12,08,41,9.40
2015,11,12,08,42,9.40
2015,11,12,08,43,9.40
2015,11,12,08,44,9.40
2015,11,12,08,45,9.40
2015,11,12,08,46,9.40
2015,11,12,08,47,9.50
2015,11,12,08,48,9.50
2015,11,12,08,49,9.50
2015,11,12,08,50,9.50
2015,11,12,08,51,9.50
2015,11,12,08,52,9.50
2015,11,12,08,53,9.50
2015,11,12,08,54,9.50
2015,11,12,08,55,9.50
2015,11,12,08,56,9.50
2015,11,12,08,57,9.60
2015,11,12,08,58,9.60
2015,11,12,08,59,9.60
2015,11,12,09,00,9.60
2015,11,12,09,01,9.60
2015,11,12,09,02,9.60
2015,11,12,09,03,9.60
2015,11,12,09,04,9.60
2015,11,12,09,05,9.70
2015,11,12,09,06,9.70
2015,11,12,09,07,9.70
2015,11,12,09,08,9.70
2015,11,12,09,09,9.70
2015,11,12,09,10,9.70
2015,11,12,09,11,9.70
2015,11,12,09,12,9.80
2015,11,12,09,13,9.80
2015,11,12,09,14,9.80
2015,11,12,09,15,9.80
2015,11,12,09,16,9.90
2015,11,12,09,17,9.90
2015,11,12,09,18,9.90
2015,11,12,09,19,9.90
2015,11,12,09,20,9.90
2015,11,12,09,21,9.90
2015,11,12,09,22,9.90
2015,11,12,09,23,9.90
2015,11,12,09,24,9.90
2015,11,12,09,25,9.90
2015,11,12,09,26,9.90
2015,11,12,09,27,9.90
2015,11,12,09,28,9.90
2015,11,12,09,29,9.90
2015,11,12,09,30,10.00
2015,11,12,09,31,10.00
2015,11,12,09,32,10.00
2015,11,12,09,33,10.00
2015,11,12,09,34,10.00
2015,11,12,09,35,10.00
2015,11,12,09,36,10.00
2015,11,12,09,37,10.00
2015,11,12,09,38,9.90
2015,11,12,09,39,9.90
2015,11,12,09,40,9.90
2015,11,12,09,41,9.90
2015,11,12,09,42,9.90
2015,11,12,09,43,9.90
2015,11,12,09,44,9.90
2015,11,12,09,45,9.90
2015,11,12,09,46,9.90
2015,11,12,09,47,9.90
2015,11,12,09,48,9.90
2015,11,12,09,49,9.90
2015,11,12,09,50,9.90
2015,11,12,09,51,9.90
2015,11,12,09,52,9.90
2015,11,12,09,53,9.80
2015,11,12,09,54,9.90
2015,11,12,09,55,9.90
2015,11,12,09,56,9.80
2015,11,12,09,57,9.80
2015,11,12,09,58,9.80
2015,11,12,09,59,9.80
2015,11,12,10,00,9.80
2015,11,12,10,01,9.80
2015,11,12,10,02,9.80
2015,11,12,10,03,9.80
2015,11,12,10,04,9.80
2015,11,12,10,05,9.90
2015,11,12,10,06,9.90
2015,11,12,10,07,9.90
2015,11,12,10,08,9.90
2015,11,12,10,09,9.90
2015,11,12,10,10,10.00
2015,11,12,10,11,10.00
2015,11,12,10,12,10.10
2015,11,12,10,13,10.10
2015,11,12,10,14,10.10
2015,11,12,10,15,10.10
2015,11,12,10,16,10.10
2015,11,12,10,17,10.10
2015,11,12,10,18,10.10
2015,11,12,10,19,10.20
2015,11,12,10,20,10.20
2015,11,12,10,21,10.40
2015,11,12,10,22,10.40
2015,11,12,10,23,10.50
2015,11,12,10,24,10.60
2015,11,12,10,25,10.70
2015,11,12,10,26,10.80
2015,11,12,10,27,10.80
2015,11,12,10,28,10.90
2015,11,12,10,29,10.90
2015,11,12,10,30,11.00
2015,11,12,10,31,11.00
2015,11,12,10,32,11.10
2015,11,12,10,33,11.10
2015,11,12,10,34,11.10
2015,11,12,10,35,11.10
2015,11,12,10,36,11.10
2015,11,12,10,37,11.10
2015,11,12,10,38,11.10
2015,11,12,10,39,11.20
2015,11,12,10,40,11.20
2015,11,12,10,41,11.20
2015,11,12,10,42,11.20
2015,11,12,10,43,11.20
2015,11,12,10,44,11.20
2015,11,12,10,45,11.20
2015,11,12,10,46,11.30
2015,11,12,10,47,11.30
2015,11,12,10,48,11.30
2015,11,12,10,49,11.40
2015,11,12,10,50,11.40
2015,11,12,10,51,11.40
2015,11,12,10,52,11.40
2015,11,12,10,53,11.40
2015,11,12,10,54,11.40
2015,11,12,10,55,11.50
2015,11,12,10,56,11.50
2015,11,12,10,57,11.50
2015,11,12,10,58,11.50
2015,11,12,10,59,11.50
2015,11,12,11,00,11.60
2015,11,12,11,01,11.60
2015,11,12,11,02,11.60
2015,11,12,11,03,11.60
2015,11,12,11,04,11.60
2015,11,12,11,05,11.60
2015,11,12,11,06,11.60
2015,11,12,11,07,11.60
2015,11,12,11,08,11.60
2015,11,12,11,09,11.60
2015,11,12,11,10,11.60
2015,11,12,11,11,11.70
2015,11,12,11,12,11.70
2015,11,12,11,13,11.70
2015,11,12,11,14,11.70
2015,11,12,11,15,11.70
2015,11,12,11,16,11.70
2015,11,12,11,17,11.70
2015,11,12,11,18,11.70
2015,11,12,11,19,11.80
2015,11,12,11,20,11.80
2015,11,12,11,21,11.90
2015,11,12,11,22,12.00
2015,11,12,11,23,12.00
2015,11,12,11,24,12.10
2015,11,12,11,25,12.10
2015,11,12,11,26,12.10
2015,11,12,11,27,12.20
2015,11,12,11,28,12.20
2015,11,12,11,29,12.20
2015,11,12,11,30,12.20
2015,11,12,11,31,12.20
2015,11,12,11,32,12.20
2015,11,12,11,33,12.20
2015,11,12,11,34,12.20
2015,11,12,11,35,12.20
2015,11,12,11,36,12.20
2015,11,12,11,37,12.10
2015,11,12,11,38,12.10
2015,11,12,11,39,12.10
2015,11,12,11,40,12.10
2015,11,12,11,41,12.10
2015,11,12,11,42,12.10
2015,11,12,11,43,12.10
2015,11,12,11,44,12.00
2015,11,12,11,45,12.00
2015,11,12,11,46,12.00
2015,11,12,11,47,12.00
2015,11,12,11,48,12.00
2015,11,12,11,49,12.00
2015,11,12,11,50,12.00
2015,11,12,11,51,12.00
2015,11,12,11,52,11.90
2015,11,12,11,53,12.00
2015,11,12,11,54,11.90
2015,11,12,11,55,12.00
2015,11,12,11,56,11.90
2015,11,12,11,57,11.90
2015,11,12,11,58,12.00
2015,11,12,11,59,12.00
2015,11,12,12,00,12.00
2015,11,12,12,01,12.00
2015,11,12,12,02,12.00
2015,11,12,12,03,12.00
2015,11,12,12,04,12.00
2015,11,12,12,05,12.00
2015,11,12,12,06,12.00
2015,11,12,12,07,12.00
2015,11,12,12,08,12.00
2015,11,12,12,09,12.00
2015,11,12,12,10,12.10
2015,11,12,12,11,12.00
2015,11,12,12,12,12.00
2015,11,12,12,13,12.00
2015,11,12,12,14,12.00
2015,11,12,12,15,12.00
2015,11,12,12,16,12.00
2015,11,12,12,17,12.00
2015,11,12,12,18,12.00
2015,11,12,12,19,12.00
2015,11,12,12,20,12.00
2015,11,12,12,21,12.00
2015,11,12,12,22,11.90
2015,11,12,12,23,11.90
2015,11,12,12,24,11.90
2015,11,12,12,25,11.90
2015,11,12,12,26,11.90
2015,11,12,12,27,11.90
2015,11,12,12,28,11.90
2015,11,12,12,29,11.90
2015,11,12,12,30,11.90
2015,11,12,12,31,11.90
2015,11,12,12,32,11.90
2015,11,12,12,33,11.90
2015,11,12,12,34,11.80
2015,11,12,12,35,11.80
2015,11,12,12,36,11.80
2015,11,12,12,37,11.80
2015,11,12,12,38,11.80
2015,11,12,12,39,11.80
2015,11,12,12,40,11.70
2015,11,12,12,41,11.70
2015,11,12,12,42,11.70
2015,11,12,12,43,11.70
2015,11,12,12,44,11.70
2015,11,12,12,45,11.70
2015,11,12,12,46,11.70
2015,11,12,12,47,11.70
2015,11,12,12,48,11.70
2015,11,12,12,49,11.70
2015,11,12,12,50,11.70
2015,11,12,12,51,11.70
2015,11,12,12,52,11.70
2015,11,12,12,53,11.70
2015,11,12,12,54,11.70
2015,11,12,12,55,11.70
2015,11,12,12,56,11.70
2015,11,12,12,57,11.70
2015,11,12,12,58,11.70
2015,11,12,12,59,11.70
2015,11,12,13,00,11.70
2015,11,12,13,01,11.70
2015,11,12,13,02,11.70
2015,11,12,13,03,11.70
2015,11,12,13,04,11.70
2015,11,12,13,05,11.70
2015,11,12,13,06,11.70
2015,11,12,13,07,11.70
2015,11,12,13,08,11.70
2015,11,12,13,09,11.70
2015,11,12,13,10,11.80
2015,11,12,13,11,11.80
2015,11,12,13,12,11.80
2015,11,12,13,13,11.80
2015,11,12,13,14,11.80
2015,11,12,13,15,11.80
2015,11,12,13,16,11.80
2015,11,12,13,17,11.80
2015,11,12,13,18,11.80
2015,11,12,13,19,11.80
2015,11,12,13,20,11.80
2015,11,12,13,21,11.80
2015,11,12,13,22,11.80
2015,11,12,13,23,11.80
2015,11,12,13,24,11.80
2015,11,12,13,25,11.70
2015,11,12,13,26,11.70
2015,11,12,13,27,11.70
2015,11,12,13,28,11.70
2015,11,12,13,29,11.70
2015,11,12,13,30,11.70
2015,11,12,13,31,11.70
2015,11,12,13,32,11.70
2015,11,12,13,33,11.70
2015,11,12,13,34,11.70
2015,11,12,13,35,11.70
2015,11,12,13,36,11.70
2015,11,12,13,37,11.70
2015,11,12,13,38,11.60
2015,11,12,13,39,11.60
2015,11,12,13,40,11.60
2015,11,12,13,41,11.60
2015,11,12,13,42,11.60
2015,11,12,13,43,11.60
2015,11,12,13,44,11.60
2015,11,12,13,45,11.70
2015,11,12,13,46,11.60
2015,11,12,13,47,11.60
2015,11,12,13,48,11.70
2015,11,12,13,49,11.70
2015,11,12,13,50,11.70
2015,11,12,13,51,11.70
2015,11,12,13,52,11.70
2015,11,12,13,53,11.70
2015,11,12,13,54,11.70
2015,11,12,13,55,11.70
2015,11,12,13,56,11.70
2015,11,12,13,57,11.70
2015,11,12,13,58,11.70
2015,11,12,13,59,11.70
2015,11,12,14,00,11.70
2015,11,12,14,01,11.70
2015,11,12,14,02,11.70
2015,11,12,14,03,11.70
2015,11,12,14,04,11.70
2015,11,12,14,05,11.70
2015,11,12,14,06,11.70
2015,11,12,14,07,11.80
2015,11,12,14,08,11.80
2015,11,12,14,09,11.80
2015,11,12,14,10,11.80
2015,11,12,14,11,11.80
2015,11,12,14,12,11.80
2015,11,12,14,13,11.80
2015,11,12,14,14,11.80
2015,11,12,14,15,11.80
2015,11,12,14,16,11.80
2015,11,12,14,17,11.80
2015,11,12,14,18,11.80
2015,11,12,14,19,11.90
2015,11,12,14,20,11.90
2015,11,12,14,21,11.90
2015,11,12,14,22,11.90
2015,11,12,14,23,11.90
2015,11,12,14,24,11.90
2015,11,12,14,25,11.90
2015,11,12,14,26,11.90
2015,11,12,14,27,11.90
2015,11,12,14,28,11.90
2015,11,12,14,29,11.90
2015,11,12,14,30,11.90
2015,11,12,14,31,11.90
2015,11,12,14,32,11.90
2015,11,12,14,33,11.90
2015,11,12,14,34,11.90
2015,11,12,14,35,11.90
2015,11,12,14,36,11.90
2015,11,12,14,37,11.90
2015,11,12,14,38,11.90
2015,11,12,14,39,11.90
2015,11,12,14,40,11.90
2015,11,12,14,41,11.90
2015,11,12,14,42,11.90
2015,11,12,14,43,11.90
2015,11,12,14,44,11.90
2015,11,12,14,45,11.90
2015,11,12,14,46,11.90
2015,11,12,14,47,11.90
2015,11,12,14,48,11.90
2015,11,12,14,49,12.00
2015,11,12,14,50,12.00
2015,11,12,14,51,12.00
2015,11,12,14,52,12.00
2015,11,12,14,53,12.00
2015,11,12,14,54,12.00
2015,11,12,14,55,12.00
2015,11,12,14,56,12.10
2015,11,12,14,57,12.10
2015,11,12,14,58,12.10
2015,11,12,14,59,12.10
2015,11,12,15,00,12.10
2015,11,12,15,01,12.10
2015,11,12,15,02,12.10
2015,11,12,15,03,12.10
2015,11,12,15,04,12.10
2015,11,12,15,05,12.10
2015,11,12,15,06,12.10
2015,11,12,15,07,12.10
2015,11,12,15,08,12.10
2015,11,12,15,09,12.10
2015,11,12,15,10,12.10
2015,11,12,15,11,12.20
2015,11,12,15,12,12.20
2015,11,12,15,13,12.20
2015,11,12,15,14,12.20
2015,11,12,15,15,12.20
2015,11,12,15,16,12.20
2015,11,12,15,17,12.20
2015,11,12,15,18,12.20
2015,11,12,15,19,12.20
2015,11,12,15,20,12.20
2015,11,12,15,21,12.20
2015,11,12,15,22,12.20
2015,11,12,15,23,12.30
2015,11,12,15,24,12.30
2015,11,12,15,25,12.30
2015,11,12,15,26,12.30
2015,11,12,15,27,12.40
2015,11,12,15,28,12.40
2015,11,12,15,29,12.40
2015,11,12,15,30,12.50
2015,11,12,15,31,12.50
2015,11,12,15,32,12.50
2015,11,12,15,33,12.60
2015,11,12,15,34,12.60
2015,11,12,15,35,12.60
2015,11,12,15,36,12.70
2015,11,12,15,37,12.70
2015,11,12,15,38,12.70
2015,11,12,15,39,12.70
2015,11,12,15,40,12.70
2015,11,12,15,41,12.70
2015,11,12,15,42,12.70
2015,11,12,15,43,12.70
2015,11,12,15,44,12.80
2015,11,12,15,45,12.80
2015,11,12,15,46,12.80
2015,11,12,15,47,12.80
2015,11,12,15,48,12.80
2015,11,12,15,49,12.80
2015,11,12,15,50,12.80
2015,11,12,15,51,12.80
2015,11,12,15,52,12.80
2015,11,12,15,53,12.70
2015,11,12,15,54,12.70
2015,11,12,15,55,12.70
2015,11,12,15,56,12.70
2015,11,12,15,57,12.70
2015,11,12,15,58,12.70
2015,11,12,15,59,12.70
2015,11,12,16,00,12.70
2015,11,12,16,01,12.70
2015,11,12,16,02,12.70
2015,11,12,16,03,12.70
2015,11,12,16,04,12.70
2015,11,12,16,05,12.70
2015,11,12,16,06,12.70
2015,11,12,16,07,12.70
2015,11,12,16,08,12.70
2015,11,12,16,09,12.60
2015,11,12,16,10,12.60
2015,11,12,16,11,12.60
2015,11,12,16,12,12.60
2015,11,12,16,13,12.60
2015,11,12,16,14,12.60
2015,11,12,16,15,12.60
2015,11,12,16,16,12.60
2015,11,12,16,17,12.50
2015,11,12,16,18,12.50
2015,11,12,16,19,12.50
2015,11,12,16,20,12.50
2015,11,12,16,21,12.50
2015,11,12,16,22,12.40
2015,11,12,16,23,12.40
2015,11,12,16,24,12.40
2015,11,12,16,25,12.40
2015,11,12,16,26,12.40
2015,11,12,16,27,12.40
2015,11,12,16,28,12.40
2015,11,12,16,29,12.40
2015,11,12,16,30,12.40
2015,11,12,16,31,12.40
2015,11,12,16,32,12.40
2015,11,12,16,33,12.40
2015,11,12,16,34,12.40
2015,11,12,16,35,12.40
2015,11,12,16,36,12.40
2015,11,12,16,37,12.40
2015,11,12,16,38,12.40
2015,11,12,16,39,12.40
2015,11,12,16,40,12.40
2015,11,12,16,41,12.40
2015,11,12,16,42,12.40
2015,11,12,16,43,12.40
2015,11,12,16,44,12.40
2015,11,12,16,45,12.40
2015,11,12,16,46,12.40
2015,11,12,16,47,12.40
2015,11,12,16,48,12.40
2015,11,12,16,49,12.40
2015,11,12,16,50,12.50
2015,11,12,16,51,12.50
2015,11,12,16,52,12.50
2015,11,12,16,53,12.50
2015,11,12,16,54,12.60
2015,11,12,16,55,12.60
2015,11,12,16,56,12.60
2015,11,12,16,57,12.60
2015,11,12,16,58,12.60
2015,11,12,16,59,12.60
2015,11,12,17,00,12.60
2015,11,12,17,01,12.60
2015,11,12,17,02,12.60
2015,11,12,17,03,12.70
2015,11,12,17,04,12.70
2015,11,12,17,05,12.70
2015,11,12,17,06,12.70
2015,11,12,17,07,12.70
2015,11,12,17,08,12.70
2015,11,12,17,09,12.70
2015,11,12,17,10,12.70
2015,11,12,17,11,12.70
2015,11,12,17,12,12.70
2015,11,12,17,13,12.80
2015,11,12,17,14,12.80
2015,11,12,17,15,12.80
2015,11,12,17,16,12.80
2015,11,12,17,17,12.80
2015,11,12,17,18,12.80
2015,11,12,17,19,12.80
2015,11,12,17,20,12.80
2015,11,12,17,21,12.80
2015,11,12,17,22,12.80
2015,11,12,17,23,12.80
2015,11,12,17,24,12.80
2015,11,12,17,25,12.80
2015,11,12,17,26,12.80
2015,11,12,17,27,12.80
2015,11,12,17,28,12.80
2015,11,12,17,29,12.90
2015,11,12,17,30,12.90
2015,11,12,17,31,12.90
2015,11,12,17,32,12.90
2015,11,12,17,33,12.90
2015,11,12,17,34,12.90
2015,11,12,17,35,12.90
2015,11,12,17,36,12.90
2015,11,12,17,37,12.90
2015,11,12,17,38,12.90
2015,11,12,17,39,12.90
2015,11,12,17,40,12.90
2015,11,12,17,41,12.90
2015,11,12,17,42,12.90
2015,11,12,17,43,12.90
2015,11,12,17,44,12.90
2015,11,12,17,45,12.90